• In Netherlands
  • List of Countries
  • For 7 days
  • Water Temperature
  • Satellite Maps
  • Weather Map
  • Weather Widgets
  • user-avatar
    Login

    Hourly Weather Sydney

    Today, 30 May, Tuesday

    Time Temperature Precipitation Wind Pressure Humidity
    00:00 +5°C° 0 mm 4 mps 766 mmHg 75%
    01:00 +5°C° 0 mm 4 mps 766 mmHg 78%
    02:00 +4°C° 0 mm 4 mps 766 mmHg 80%
    03:00 +4°C° 0 mm 4 mps 766 mmHg 82%
    04:00 +3°C° 0 mm 3 mps 766 mmHg 84%
    05:00 +3°C° 0 mm 3 mps 766 mmHg 85%
    06:00 +3°C° 0 mm 3 mps 766 mmHg 86%
    07:00 +3°C° 0 mm 4 mps 766 mmHg 87%
    08:00 +7°C° 0 mm 3 mps 766 mmHg 76%
    09:00 +9°C° 0 mm 3 mps 766 mmHg 65%
    10:00 +12°C° 0 mm 3 mps 766 mmHg 54%
    11:00 +13°C° 0 mm 3 mps 765 mmHg 49%
    12:00 +16°C° 0 mm 3 mps 765 mmHg 44%
    13:00 +18°C° 0 mm 3 mps 765 mmHg 40%
    14:00 +17°C° 0 mm 3 mps 764 mmHg 45%
    15:00 +17°C° 0 mm 3 mps 764 mmHg 51%
    16:00 +16°C° 0 mm 2 mps 764 mmHg 57%
    17:00 +13°C° 0 mm 3 mps 765 mmHg 61%
    18:00 +12°C° 0 mm 3 mps 765 mmHg 65%
    19:00 +10°C° 0 mm 4 mps 765 mmHg 69%
    20:00 +10°C° 0 mm 4 mps 766 mmHg 72%
    21:00 +8°C° 0 mm 4 mps 766 mmHg 75%
    22:00 +8°C° 0 mm 4 mps 766 mmHg 78%
    23:00 +7°C° 0 mm 4 mps 766 mmHg 81%

    Tomorrow, 31 May, Wednesday

    Time Temperature Precipitation Wind Pressure Humidity
    00:00 +7°C° 0 mm 5 mps 766 mmHg 85%
    01:00 +7°C° 0 mm 5 mps 766 mmHg 88%
    02:00 +7°C° 0.1 mm 5 mps 766 mmHg 86%
    03:00 +8°C° 0.1 mm 5 mps 766 mmHg 85%
    04:00 +8°C° 0.1 mm 5 mps 766 mmHg 83%
    05:00 +8°C° 0.1 mm 5 mps 767 mmHg 84%
    06:00 +7°C° 0.1 mm 6 mps 767 mmHg 85%
    07:00 +7°C° 0.1 mm 6 mps 768 mmHg 86%
    08:00 +8°C° 0 mm 7 mps 768 mmHg 74%
    09:00 +10°C° 0 mm 7 mps 768 mmHg 62%
    10:00 +11°C° 0 mm 7 mps 769 mmHg 49%
    11:00 +12°C° 0.1 mm 7 mps 768 mmHg 47%
    12:00 +13°C° 0.1 mm 8 mps 768 mmHg 45%
    13:00 +15°C° 0.1 mm 8 mps 768 mmHg 42%
    14:00 +13°C° 0.3 mm 8 mps 768 mmHg 45%
    15:00 +13°C° 0.3 mm 8 mps 768 mmHg 48%
    16:00 +13°C° 0.3 mm 8 mps 769 mmHg 50%
    17:00 +11°C° 0.1 mm 8 mps 769 mmHg 54%
    18:00 +10°C° 0.1 mm 8 mps 770 mmHg 58%
    19:00 +7°C° 0.1 mm 8 mps 771 mmHg 61%
    20:00 +8°C° 0 mm 7 mps 771 mmHg 61%
    21:00 +6°C° 0 mm 7 mps 771 mmHg 62%
    22:00 +6°C° 0 mm 7 mps 772 mmHg 62%
    23:00 +6°C° 0.1 mm 7 mps 772 mmHg 63%

    Day after tomorrow, 1 June, Thursday

    Time Temperature Precipitation Wind Pressure Humidity
    00:00 +6°C° 0.1 mm 7 mps 772 mmHg 63%
    01:00 +6°C° 0.1 mm 7 mps 772 mmHg 64%
    02:00 +5°C° 0.1 mm 7 mps 772 mmHg 65%
    03:00 +5°C° 0.1 mm 7 mps 772 mmHg 66%
    04:00 +5°C° 0.1 mm 7 mps 772 mmHg 67%
    05:00 +5°C° 0 mm 7 mps 772 mmHg 69%
    06:00 +5°C° 0 mm 7 mps 773 mmHg 70%
    07:00 +4°C° 0 mm 7 mps 773 mmHg 72%
    08:00 +6°C° 0 mm 7 mps 773 mmHg 66%
    09:00 +9°C° 0 mm 7 mps 773 mmHg 60%
    10:00 +11°C° 0 mm 6 mps 773 mmHg 54%
    11:00 +13°C° 0 mm 6 mps 773 mmHg 51%
    12:00 +14°C° 0 mm 6 mps 772 mmHg 49%
    13:00 +16°C° 0 mm 6 mps 772 mmHg 47%
    14:00 +15°C° 0 mm 6 mps 772 mmHg 50%
    15:00 +15°C° 0 mm 6 mps 772 mmHg 53%
    16:00 +14°C° 0 mm 6 mps 772 mmHg 56%
    17:00 +11°C° 0 mm 6 mps 772 mmHg 63%
    18:00 +9°C° 0 mm 6 mps 773 mmHg 70%
    19:00 +7°C° 0 mm 6 mps 773 mmHg 77%
    20:00 +7°C° 0.1 mm 6 mps 773 mmHg 74%
    21:00 +8°C° 0.1 mm 6 mps 773 mmHg 72%
    22:00 +8°C° 0.1 mm 6 mps 774 mmHg 70%
    23:00 +7°C° 0 mm 6 mps 773 mmHg 70%

    2 June, Friday

    Time Temperature Precipitation Wind Pressure Humidity
    00:00 +7°C° 0 mm 6 mps 773 mmHg 71%
    01:00 +6°C° 0 mm 7 mps 773 mmHg 71%
    02:00 +6°C° 0 mm 7 mps 773 mmHg 72%
    03:00 +5°C° 0 mm 7 mps 773 mmHg 72%
    04:00 +5°C° 0 mm 7 mps 773 mmHg 73%
    05:00 +5°C° 0 mm 7 mps 773 mmHg 74%
    06:00 +5°C° 0 mm 7 mps 773 mmHg 76%
    07:00 +5°C° 0 mm 7 mps 773 mmHg 77%
    08:00 +8°C° 0 mm 7 mps 774 mmHg 70%
    09:00 +10°C° 0 mm 7 mps 774 mmHg 64%
    10:00 +12°C° 0 mm 7 mps 774 mmHg 57%
    11:00 +14°C° 0 mm 7 mps 773 mmHg 55%
    12:00 +15°C° 0 mm 7 mps 773 mmHg 53%
    13:00 +16°C° 0 mm 6 mps 772 mmHg 51%
    14:00 +16°C° 0 mm 6 mps 772 mmHg 54%
    15:00 +15°C° 0 mm 6 mps 772 mmHg 58%
    16:00 +15°C° 0 mm 6 mps 772 mmHg 62%
    17:00 +13°C° 0 mm 6 mps 772 mmHg 68%
    18:00 +11°C° 0 mm 6 mps 773 mmHg 75%
    19:00 +9°C° 0 mm 6 mps 773 mmHg 81%
    20:00 +9°C° 0.1 mm 6 mps 773 mmHg 82%
    21:00 +9°C° 0.1 mm 6 mps 773 mmHg 82%
    22:00 +9°C° 0.1 mm 6 mps 773 mmHg 82%
    23:00 +9°C° 0.2 mm 6 mps 773 mmHg 82%

    3 June, Saturday

    Time Temperature Precipitation Wind Pressure Humidity
    00:00 +9°C° 0.2 mm 6 mps 773 mmHg 82%
    01:00 +9°C° 0.2 mm 6 mps 773 mmHg 81%
    02:00 +8°C° 0.2 mm 6 mps 772 mmHg 82%
    03:00 +8°C° 0.2 mm 6 mps 772 mmHg 82%
    04:00 +8°C° 0.2 mm 6 mps 772 mmHg 83%
    05:00 +8°C° 0.2 mm 6 mps 772 mmHg 83%
    06:00 +8°C° 0.2 mm 6 mps 773 mmHg 82%
    07:00 +7°C° 0.2 mm 6 mps 773 mmHg 82%
    08:00 +9°C° 0.1 mm 6 mps 773 mmHg 75%
    09:00 +11°C° 0.1 mm 6 mps 773 mmHg 68%
    10:00 +14°C° 0.1 mm 6 mps 773 mmHg 60%
    11:00 +15°C° 0.1 mm 6 mps 772 mmHg 58%
    12:00 +16°C° 0.1 mm 6 mps 772 mmHg 55%
    13:00 +17°C° 0.1 mm 6 mps 771 mmHg 52%
    14:00 +17°C° 0 mm 6 mps 771 mmHg 56%
    15:00 +16°C° 0 mm 6 mps 771 mmHg 59%
    16:00 +16°C° 0 mm 5 mps 771 mmHg 62%
    17:00 +14°C° 0 mm 5 mps 771 mmHg 70%
    18:00 +12°C° 0 mm 5 mps 771 mmHg 79%
    19:00 +9°C° 0 mm 5 mps 772 mmHg 87%
    20:00 +9°C° 0 mm 5 mps 772 mmHg 86%
    21:00 +9°C° 0 mm 5 mps 771 mmHg 86%
    22:00 +9°C° 0 mm 5 mps 771 mmHg 86%
    23:00 +9°C° 0.2 mm 5 mps 771 mmHg 84%

    4 June, Sunday

    Time Temperature Precipitation Wind Pressure Humidity
    00:00 +9°C° 0.2 mm 5 mps 771 mmHg 83%
    01:00 +9°C° 0.2 mm 5 mps 771 mmHg 81%
    02:00 +9°C° 0.1 mm 5 mps 770 mmHg 82%
    03:00 +10°C° 0.1 mm 5 mps 770 mmHg 82%
    04:00 +11°C° 0.1 mm 4 mps 770 mmHg 83%
    05:00 +11°C° 0 mm 4 mps 770 mmHg 85%
    06:00 +11°C° 0 mm 4 mps 771 mmHg 86%
    07:00 +11°C° 0 mm 4 mps 771 mmHg 88%
    08:00 +13°C° 0 mm 4 mps 771 mmHg 82%
    09:00 +14°C° 0 mm 3 mps 771 mmHg 76%
    10:00 +17°C° 0 mm 3 mps 770 mmHg 70%
    11:00 +17°C° 0 mm 3 mps 770 mmHg 66%
    12:00 +18°C° 0 mm 3 mps 769 mmHg 62%
    13:00 +18°C° 0 mm 2 mps 769 mmHg 58%
    14:00 +18°C° 0 mm 2 mps 768 mmHg 60%
    15:00 +17°C° 0 mm 2 mps 768 mmHg 63%
    16:00 +18°C° 0 mm 1 mps 768 mmHg 65%
    17:00 +15°C° 0 mm 1 mps 768 mmHg 72%
    18:00 +13°C° 0 mm 1 mps 768 mmHg 78%
    19:00 +12°C° 0 mm 1 mps 768 mmHg 85%
    20:00 +11°C° 0 mm 1 mps 768 mmHg 87%
    21:00 +10°C° 0 mm 1 mps 768 mmHg 89%
    22:00 +10°C° 0 mm 1 mps 768 mmHg 91%
    23:00 +10°C° 0 mm 1 mps 768 mmHg 91%
    Show more